CZ-6A DEB, 56239

Orbit data source: Space-Track

CZ-6A DEB, 56239 is space debris in SSO originally from a launch on Fri, 11 Nov 2022 UTC launched from the Taiyaun Space Center, China (TSC). Debris objects in space refer to the collection of defunct objects orbiting the Earth. Examples of debris include non-operational satellites, rocket bodies, and fragments generated from explosions, collisions, or faulty payload assembly.

Loading next visibility...
Identifier
56239, 2022-151ABF
Orbit
SSO
Country
Flag of CNCN / PRC
Related business
Manufacturer
SAST
Mission
Spacecraft
Bus & Motor
Unknown
Mass
Unknown
Launch date (UTC)
2022-11-11 (4 years ago)
Launch vehicle
Unknown
Launch site
Taiyaun Space Center, China (TSC)
Object type
Payload
Rocket body
Debris
Shape & HBR
Unknown shape, 0.1 m
Radar Cross Section
Small (<0.1 m²)

Expand to show TLE details & history
Last TLE update: 2 days ago

TLE from 2 days ago
0 CZ-6A DEB
1 56239U 22151ABF 26264.00623372  .00001993  00000-0  68634-3 0  9991
2 56239  98.6831 282.8138 0064360 192.2010 167.7620 14.35906576188000
Epoch: 2026-09-21T00:08Z
TLE epoch observation values (Epoch: 2026-09-21T00:08:58.593Z)
Latitude
-0.00001°
Longitude
-79.3226°
Altitude
819.988 km
Speed
7.42 km/s
True Right ascension
18h 51m 15s
True Declination
0° 00' 00"
Sunlit
Object was in daylight at epoch
Visualization orbit readout
Latitude
Unknown
Longitude
Unknown
Altitude
Unknown
Speed
Unknown
Apparent Right ascension
Unknown
Apparent Declination
Unknown
Sunlit
N/A
Visualization observer readout
Local Sidereal Time
15:36:06
Azimuth
Unknown
Elevation
Unknown
Doppler factor
Unknown
Orbital elements
Apogee altitude
815.191 km
Perigee altitude
723.191 km
Semi-major axis
7,147.328 km
Eccentricity
0.00644
Inclination
98.6831°
RAAN
282.8138°
Arg. of periapsis
192.201°
True anomaly
167.91711°
Mean anomaly
167.762°
Eccentric anomaly
167.83968°
Mean motion
3.59193 °/min
Orbital period
100.22 mins
BSTAR
0.00068634
Loading maneuver chart data...
Computing Atmospheric mass density...
Loading historical data...
Loading historical data...
Loading historical data...
Loading historical data...
Loading historical data...
Loading historical data...
Loading historical data...

Documentation

Showing up to 5 results
|